Dewpoint
50 50 50 50 51 52 53 53 53 54 55 58 58 58 58 58 56 54 49 48 48 50 52 52 55 55 54 49 46 40 35 31 31 32 31 29 34 37 38 36 33 33 32 36 45
49 50 50 49 49 50 51 52 53 53 53 54 56 57 57 56 53 51 52 53 54 53 46 50 50 53 50 47 46 41 36 33 35 34 33 34 37 39 38 35 33 30 33 34 35
49 49 49 50 50 50 51 51 52 54 53 54 55 56 56 55 49 47 51 54 55 54 50 47 56 53 48 46 44 41 37 36 37 36 35 37 38 40 39 36 34 32 32 34 34
49 49 49 49 50 50 50 50 52 53 54 53 55 55 55 51 37 48 51 52 54 54 51 45 52 51 48 45 43 39 40 38 38 39 39 38 39 40 40 40 39 39 38 35 33
51 50 49 50 50 50 50 50 50 52 53 53 54 54 52 47 44 48 48 45 46 51 50 44 49 47 46 45 43 41 38 40 40 40 40 41 41 40 40 40 40 40 36 34 32
51 51 50 51 50 50 50 50 51 50 52 53 54 53 47 41 44 44 45 44 42 48 50 45 47 46 41 43 43 42 41 40 39 40 41 40 39 39 38 38 37 36 35 33 35
51 51 51 51 51 51 50 50 50 50 51 53 52 50 45 40 42 42 43 41 42 43 46 47 46 49 43 44 45 42 40 40 40 41 40 41 37 36 37 31 31 32 32 38 40
51 52 52 52 52 51 50 50 51 52 51 51 50 48 39 43 44 43 42 42 43 41 45 46 47 50 51 44 44 43 42 37 37 40 40 37 32 34 32 30 29 30 34 38 40
50 52 52 53 52 52 52 52 53 52 51 50 46 44 37 44 42 43 42 39 43 42 41 46 48 49 48 43 41 42 37 36 35 39 38 37 32 30 31 30 29 29 34 36 38
51 51 52 53 52 51 51 52 54 51 49 48 46 40 39 38 41 41 42 39 41 43 44 45 45 45 46 42 36 35 35 34 34 35 34 32 34 32 31 30 30 29 34 36 37
51 52 53 53 52 51 51 50 45 44 45 38 37 34 38 39 43 41 42 39 41 42 39 40 38 38 40 43 38 33 34 35 34 34 33 34 34 31 34 32 30 30 33 35 37
51 52 53 53 52 52 52 47 43 42 39 41 40 37 41 41 39 39 42 36 37 36 41 36 36 40 44 43 40 36 34 34 33 33 32 34 35 36 33 31 30 30 33 35 37
51 52 53 53 51 51 50 49 49 47 37 39 40 39 38 39 38 38 40 35 35 35 39 34 38 41 45 41 39 36 34 32 32 34 34 32 32 31 27 27 28 30 34 35 36
52 52 53 51 48 50 49 49 49 46 31 33 38 38 40 40 36 37 39 34 36 34 38 32 38 43 42 40 40 34 37 36 36 38 33 32 28 29 27 27 29 33 34 35 37
53 52 53 51 49 47 49 49 47 43 21 32 36 38 37 34 33 36 40 34 33 37 36 33 39 40 42 40 39 35 39 38 38 37 35 33 28 27 26 24 28 33 34 36 38
53 53 52 49 49 50 49 48 43 29 21 33 37 36 36 35 32 38 39 36 39 36 35 32 45 42 40 41 40 38 36 36 33 33 31 30 28 25 22 22 26 33 35 37 38
55 53 50 47 44 51 50 43 29 24 34 31 33 37 33 30 29 34 35 33 33 31 31 34 35 45 42 42 38 38 37 33 32 31 28 25 25 24 25 24 26 31 35 36 38
55 53 50 48 49 52 45 36 25 30 31 35 35 36 31 30 29 33 31 28 34 37 29 30 32 43 43 40 38 37 35 29 24 25 25 25 23 21 25 27 27 30 34 37 38
54 50 48 49 51 49 39 28 29 34 34 33 33 31 28 29 28 34 28 26 34 36 30 31 33 42 43 40 39 39 36 32 26 26 24 24 27 28 27 28 29 29 34 37 38
46 45 45 48 51 46 34 32 34 38 36 32 24 26 23 26 32 33 26 25 30 36 38 33 32 38 37 42 38 39 38 32 29 24 22 23 24 23 23 25 28 29 33 37 38
46 42 47 51 49 40 31 33 37 39 37 26 24 24 24 25 33 29 26 31 30 34 37 35 33 32 36 38 37 37 37 36 30 26 22 19 21 24 24 26 27 28 32 36 38
45 40 51 50 38 37 34 36 40 41 39 26 27 25 22 27 29 33 26 33 28 37 35 37 29 33 32 30 35 36 34 33 30 26 24 23 21 25 26 27 28 29 32 36 37
41 44 50 47 35 35 39 38 39 40 36 29 32 31 28 27 30 33 32 30 34 37 36 33 29 28 31 32 29 33 33 35 30 25 24 23 22 24 29 31 31 31 33 36 37
42 40 45 45 44 41 39 38 39 41 36 38 36 36 32 29 29 30 34 38 41 36 39 33 30 25 25 28 30 30 30 33 33 29 25 24 24 24 27 30 31 32 32 34 36
41 40 42 38 39 40 41 40 38 40 41 43 37 36 29 31 34 34 35 39 38 41 39 36 28 30 29 29 29 29 30 28 29 30 26 26 25 25 25 30 31 32 32 33 34
37 38 40 40 41 41 41 40 37 42 40 39 41 36 34 32 34 36 38 38 38 40 38 36 30 26 26 30 28 27 28 31 31 30 27 26 26 27 26 29 29 29 30 32 34
43 41 38 35 33 39 38 41 39 40 43 43 41 36 35 36 36 39 40 39 38 37 37 34 30 28 25 24 25 26 27 27 27 27 26 25 27 27 28 28 30 32 33 34 35
Wind_Speed
6 6 6 6 6 6 5 5 5 5 3 6 10 11 11 12 7 11 13 6 7 14 13 9 6 12 9 6 4 3 10 17 16 11 4 2 5 5 7 11 8 6 7 7 6
6 6 6 5 5 5 6 6 6 6 5 6 7 10 10 8 13 17 13 14 14 14 11 8 12 15 15 11 7 13 16 19 11 11 9 4 10 11 9 12 13 9 6 6 9
8 6 6 5 5 5 5 5 6 8 7 7 7 7 7 9 9 10 20 26 23 15 13 11 8 14 23 15 16 14 23 15 11 10 7 9 12 5 13 14 8 14 16 14 16
9 8 6 6 5 4 4 5 6 6 6 6 5 6 9 11 8 5 9 2 18 18 15 14 12 12 20 22 19 17 19 16 13 8 8 12 10 15 18 24 19 18 16 15 11
13 11 8 7 6 5 4 5 6 8 8 8 7 7 9 7 12 6 3 6 3 14 20 20 19 21 25 24 20 24 19 16 15 13 13 11 16 20 23 26 21 19 12 11 13
14 12 9 8 8 6 5 7 9 9 10 10 8 12 8 16 7 11 15 11 5 10 18 21 13 22 18 25 29 15 22 18 15 15 12 14 19 6 27 21 19 13 13 9 8
16 14 12 10 9 11 6 8 10 12 10 9 8 12 11 17 4 4 1 9 10 9 20 23 26 13 18 23 22 24 15 18 19 17 16 8 21 23 21 15 13 8 4 2 4
16 16 13 11 10 10 8 9 13 12 8 4 6 7 8 5 18 15 9 5 10 16 14 19 20 18 10 17 19 25 20 23 21 15 13 9 22 13 3 1 2 1 2 3 6
16 16 15 11 11 11 9 10 14 13 9 9 6 6 8 3 17 17 19 12 3 11 14 10 14 9 19 18 19 22 23 27 20 15 15 13 16 7 7 13 14 7 3 5 7
16 16 14 14 13 9 7 8 11 7 7 6 3 5 10 9 8 12 12 19 8 13 10 13 12 18 20 22 35 21 24 15 22 15 13 13 21 17 12 10 9 7 6 7 8
14 16 13 13 14 8 5 1 6 5 11 11 12 7 2 14 6 10 10 16 10 11 16 24 23 33 36 24 21 23 23 17 16 8 7 16 20 17 19 11 11 9 10 10 9
13 14 12 13 15 11 10 7 6 3 6 18 6 24 3 8 7 13 12 18 15 22 24 23 37 31 19 25 24 24 20 21 15 7 7 15 20 20 19 14 9 12 14 14 12
12 12 11 7 4 7 15 11 12 7 3 9 23 16 10 13 7 13 20 25 17 20 24 32 23 24 24 30 28 20 21 19 11 6 7 10 23 14 6 5 4 10 14 15 16
11 12 9 7 4 5 6 16 15 8 5 7 10 12 16 9 11 20 22 20 10 26 24 26 27 30 26 27 29 25 14 11 9 2 7 3 7 10 10 6 8 15 16 16 16
13 11 9 14 2 3 10 16 10 5 6 12 11 8 12 20 5 23 21 21 18 14 7 18 17 23 28 31 33 15 14 10 4 6 7 10 8 6 3 8 12 17 17 16 15
15 12 9 8 8 5 20 18 5 4 9 10 10 15 18 23 13 13 15 14 6 11 21 16 7 27 23 31 26 18 15 9 4 1 9 14 11 6 5 1 13 18 18 17 16
15 15 14 8 6 22 22 9 6 8 4 6 6 10 21 15 23 12 21 28 12 11 13 15 21 10 19 20 9 20 20 6 8 7 10 4 8 12 4 3 12 23 22 20 18
13 13 11 12 9 19 12 5 10 5 7 4 7 17 12 18 18 16 19 24 24 15 16 15 7 16 17 26 12 23 19 7 6 8 8 4 7 2 6 2 7 18 22 20 19
8 5 4 10 17 19 12 10 6 6 9 9 17 13 10 21 11 16 22 25 16 24 5 15 5 11 18 8 17 8 12 1 4 2 3 6 4 4 2 2 7 16 22 22 20
7 4 7 16 22 12 4 7 5 7 7 21 11 13 15 23 7 17 19 20 16 21 11 14 5 9 9 9 3 13 13 6 3 6 6 5 4 3 3 1 6 18 25 23 19
5 4 6 22 13 8 8 7 6 13 17 19 11 14 13 20 10 19 18 9 25 20 18 5 8 1 16 9 16 14 10 5 4 3 4 4 5 4 3 4 5 15 23 22 21
6 4 16 20 12 7 10 6 5 9 25 17 12 10 17 19 14 7 18 9 27 15 11 9 4 9 6 3 12 13 14 15 11 6 3 2 3 4 3 4 5 13 20 20 20
4 3 14 16 9 17 7 10 10 17 25 17 14 11 10 17 11 20 17 20 26 20 13 14 9 12 7 3 3 11 15 22 12 1 14 12 5 2 2 2 4 14 20 19 19
4 6 6 11 10 6 12 10 9 20 22 15 10 12 20 15 15 19 17 9 22 29 26 4 7 17 19 12 15 19 25 24 23 17 13 16 8 6 6 6 8 14 18 18 17
5 7 6 11 17 24 11 8 15 11 14 6 9 14 20 11 14 13 18 8 21 25 25 6 5 11 4 3 19 21 24 25 27 26 19 19 24 21 11 12 13 14 15 16 16
5 4 4 4 10 16 19 14 21 6 10 6 4 18 21 15 17 19 18 14 15 23 27 14 5 3 4 4 13 17 25 29 30 28 31 22 22 7 6 11 14 13 13 13 14
4 2 2 4 4 7 7 14 22 21 9 9 16 19 21 11 17 21 19 15 12 23 28 17 7 4 4 4 5 12 23 26 25 26 28 28 27 12 10 14 16 13 11 10 9
Wind_Direction
318 313 312 317 326 333 337 335 321 296 298 277 249 233 234 227 199 209 232 249 229 260 292 297 253 209 214 230 211 215 232 239 240 236 244 177 304 327 300 281 288 276 274 353 347
299 307 311 309 310 313 319 315 294 277 275 268 250 236 234 226 232 235 241 246 243 261 264 265 217 198 204 213 204 215 230 236 242 246 252 260 298 312 295 289 285 268 250 300 327
280 282 295 303 310 302 294 294 297 276 253 253 251 246 213 173 259 254 236 240 244 246 251 250 250 217 213 211 206 211 235 231 232 236 261 285 284 291 294 283 281 296 303 309 311
269 268 268 276 283 292 297 293 295 295 253 241 235 211 171 184 229 93 61 287 240 233 237 231 248 204 214 208 209 228 234 233 237 245 251 268 293 284 281 276 284 291 299 298 296
267 265 261 267 266 264 287 295 296 285 267 246 224 169 156 207 230 178 276 3 23 204 212 217 225 215 214 210 206 224 223 224 239 253 259 270 272 284 282 276 282 279 279 287 302
266 259 258 262 258 256 252 270 274 275 272 235 215 168 212 233 200 241 260 270 297 204 213 218 222 221 230 222 213 215 229 233 239 245 252 265 278 300 274 286 290 275 270 295 316
261 255 248 246 255 244 238 255 259 258 259 246 203 181 225 230 199 182 268 252 241 218 214 216 229 233 227 224 221 227 219 228 239 244 249 266 272 258 278 302 279 279 269 13 21
258 259 254 235 233 234 235 253 257 252 247 237 177 197 240 233 235 245 246 241 225 225 221 219 232 256 248 227 199 215 226 229 226 217 241 217 265 260 280 1 307 316 89 79 63
258 258 251 242 223 233 239 250 262 244 222 152 153 212 251 186 221 225 233 235 255 213 212 209 216 236 224 220 197 203 215 221 229 209 237 221 259 238 232 288 274 247 157 124 94
254 257 255 238 224 232 262 280 275 216 160 127 152 192 235 220 210 223 225 219 234 219 193 196 192 229 206 203 202 190 206 221 222 217 214 224 242 270 281 271 255 187 173 135 108
251 253 253 249 222 218 274 168 131 181 187 191 196 211 124 214 174 217 192 191 207 217 203 195 200 219 201 201 212 207 204 201 206 198 228 251 266 265 282 257 231 200 176 146 120
250 256 257 261 235 219 230 211 211 138 191 225 218 217 119 168 198 221 191 182 198 203 213 190 212 220 213 190 221 204 205 209 216 194 247 265 272 277 274 257 236 193 173 156 139
248 255 261 219 222 253 234 221 144 167 179 214 215 210 217 224 224 204 189 201 211 192 225 196 208 216 208 185 201 194 196 189 203 171 245 277 277 249 193 168 171 184 169 157 149
243 248 248 174 260 209 239 129 125 116 234 203 197 220 209 202 227 221 198 192 229 190 220 206 211 208 194 188 196 191 198 168 160 209 230 343 269 240 228 217 187 168 165 158 148
229 238 219 189 328 228 132 113 110 88 259 151 160 164 196 191 149 194 189 205 227 159 182 203 214 232 189 189 200 198 165 204 209 260 287 226 258 244 181 211 187 173 167 161 155
220 212 210 207 230 163 137 128 91 138 243 177 153 182 166 200 211 145 174 209 227 182 213 200 300 206 187 194 192 138 130 97 102 276 249 238 230 263 191 173 172 174 171 165 158
215 203 189 192 225 152 145 118 170 225 115 187 174 173 170 182 213 179 187 193 206 151 192 232 256 205 176 149 152 158 152 143 193 204 236 157 208 251 192 165 174 177 179 172 165
216 196 195 205 192 154 150 163 227 183 180 182 165 154 176 168 200 196 198 202 209 281 167 185 211 178 176 169 175 177 178 180 174 190 185 175 233 171 96 73 189 190 179 171 169
153 173 190 203 172 166 153 210 227 192 165 175 161 160 169 181 179 196 208 204 201 243 147 188 281 161 149 133 142 178 189 108 117 68 224 178 232 219 172 185 196 187 177 177 174
160 174 223 181 165 152 165 235 228 176 203 168 168 187 176 179 158 193 186 200 213 229 237 165 171 139 113 104 358 178 158 176 199 198 224 188 227 191 120 9 173 185 185 177 173
141 216 148 154 149 159 222 229 234 213 195 184 170 180 175 177 164 194 188 175 196 213 217 189 227 60 145 191 178 155 164 219 216 257 220 176 150 127 330 305 222 191 186 175 174
164 226 150 150 164 207 225 210 237 233 198 203 177 176 180 173 178 241 199 201 193 203 185 222 197 144 170 50 195 189 179 186 200 198 231 345 151 145 296 295 212 180 178 176 174
208 169 157 170 196 216 209 221 224 187 195 201 185 183 172 171 172 214 200 210 192 190 196 186 177 142 166 201 74 201 189 206 211 225 206 214 192 129 125 127 150 167 171 171 172
188 161 144 206 245 251 217 234 222 201 202 206 176 166 161 183 206 197 205 194 191 205 215 192 198 209 197 206 177 197 197 205 207 218 211 223 223 190 173 165 158 165 172 174 177
204 218 176 201 233 238 244 203 218 179 217 222 176 187 174 169 190 200 194 164 192 203 211 241 233 205 237 183 189 197 194 195 206 219 226 239 233 242 212 180 178 172 175 181 186
209 196 187 252 217 221 233 210 206 206 171 218 203 192 186 183 185 186 174 179 181 200 205 220 217 169 178 161 203 211 213 207 216 219 232 249 251 255 188 169 169 173 175 186 191
199 245 254 221 204 191 205 185 206 214 201 216 223 190 196 205 193 177 179 191 182 185 197 199 202 194 194 130 164 237 215 211 218 221 221 231 244 185 179 185 181 171 167 168 175